Location: Newark
(43.4306°N, 0.3089°E)
Time: 05:46:31
(UTC+00:00)

A-11 Canister half - Pass Details

Date: 26 August 2019
Orbit: 1513 x 1686 km, 47.2° (Epoch: 19 September)

Event Time Altitude Azimuth Distance (km) Brightness Sun altitude
Rises 20:37:40 0° 284° (WNW) 4,725 12.8 -19.2°
Reaches altitude 10° 20:40:43 10° 286° (WNW) 3,762 12.1 -19.7°
Maximum altitude 20:50:20 77° 12° (NNE) 1,651 9.1 -21.1°
Enters shadow 20:56:59 25° 96° (E) 2,890 10.0 -22.0°
